Regional Weather Roundup
Issued by NWS Upton, NY

Current Version | Previous Version | Graphics & Text | Print | Product List | Glossary Off
Versions: 1 2 3 4 5 6 7 8 9 10 11 12 13 14 15 16 17 18 19 20 21 22 23 24 25 26 27

000
ASUS41 KOKX 162208
RWROKX

REGIONAL WEATHER ROUNDUP
NATIONAL WEATHER SERVICE NEW YORK NY
500 PM EST MON JAN 16 2017

NOTE: "FAIR" INDICATES FEW OR NO CLOUDS BELOW 12,000 FEET WITH NO
SIGNIFICANT WEATHER AND/OR OBSTRUCTIONS TO VISIBILITY.

NYZ071-072-176-178-NJZ106-104-162300-
NEW YORK CITY METRO AREA

CITY           SKY/WX    TMP DP  RH WIND       PRES   REMARKS
Central Park   CLEAR     41  23  48 VRB5      30.36F
Wall St Helipt CLEAR     42  27  55 W9        30.36F
Bronx Bot Gard NOT AVBL
LaGuardia APRT MOCLDY    43  23  45 SW10      30.34F
Kennedy INTL   MOCLDY    38  26  62 S9        30.37F WCI  31
Breezy Point     N/A     37 N/A N/A S7          N/A  WCI  32
Newark/Liberty MOCLDY    41  24  51 SW9       30.35F
Teterboro      CLEAR     42  25  50 SW10      30.34S
$$

NYZ177-179-078>081-162300-
LONG ISLAND NEW YORK

CITY           SKY/WX    TMP DP  RH WIND       PRES   REMARKS
Jones Beach      N/A     37 N/A N/A SW5         N/A  WCI  34
Matinecock PT    N/A     41 N/A N/A S5          N/A
Farmingdale    CLEAR     37  26  64 SW8       30.35F WCI  31
MacArthur/ISP  MOCLDY    35  27  72 SW7       30.35S WCI  29
Shirley        CLEAR     35  27  72 SW6       30.36S WCI  30
Westhampton    CLEAR     35  25  66 SW5       30.37S WCI  31
Southampton    NOT AVBL
Bridgehampton  NOT AVBL
East Hampton     N/A     34  23  64 SW3       30.34F
Montauk          N/A     37  25  61 SW5       30.35F WCI  33
$$

NYZ052-065-067-162300-
HUDSON VALLEY

CITY           SKY/WX    TMP DP  RH WIND       PRES   REMARKS
White Plains   CLEAR     39  17  41 VRB3      30.31F
Newburgh       MOCLDY    39  23  52 W6        30.32S WCI  35
Montgomery     CLOUDY    37  22  54 SW6       30.29F WCI  32
Poughkeepsie   PTCLDY    38  19  46 S6        30.30F WCI  33
Albany         CLOUDY    34  18  52 S3        30.29F
$$

NJZ001-105-106-008-010-013-015-019>022-104-162300-
NEW JERSEY

CITY           SKY/WX    TMP DP  RH WIND       PRES   REMARKS
Newark/Liberty MOCLDY    41  24  51 SW9       30.35F
Teterboro      CLEAR     42  25  50 SW10      30.34S
Caldwell       CLEAR     40  22  48 SW6       30.35S
Somerville     CLEAR     41  23  48 CALM      30.34S
Linden           N/A     41  23  49 W6        30.36F
Sussex         CLEAR     37  23  56 CALM      30.32S
Andover          N/A     35  23  61 CALM      30.33S
Trenton        MOCLDY    39  24  55 SW6       30.36F WCI  35
Millville      CLOUDY    39  25  57 CALM      30.38F
Atlantic City  CLOUDY    40  26  57 S5        30.39S
Wrightstown    CLOUDY    40  23  50 W5        30.34F
Toms River     CLOUDY    37  27  67 CALM      30.38S
Belmar         CLEAR     38  27  64 S6        30.37F WCI  33
$$

PAZ047>061-062-071-162300-
EASTERN PENNSYLVANIA

CITY           SKY/WX    TMP DP  RH WIND       PRES   REMARKS
Philadelphia   CLOUDY    40  24  53 SW8       30.40S WCI  34
Allentown      CLOUDY    39  25  57 W7        30.35S WCI  34
Scranton       CLOUDY    36  27  69 SW6       30.30S WCI  31
$$

CTZ002-004>006-009-010-012-RIZ004-006-007-MAZ004-011-015-162300-
SOUTHERN NEW ENGLAND
 IN CT

CITY           SKY/WX    TMP DP  RH WIND       PRES   REMARKS
Bradley INTL   PTCLDY    38  18  44 S8        30.30R WCI  32
Hartford       CLOUDY    38  21  50 S7        30.31S WCI  33
Danbury        CLOUDY    33  22  63 CALM      30.32F
Wtrbury/Oxford MOCLDY    36  18  48 SW3       30.31S
Bridgeport     CLOUDY    40  27  59 SW5       30.34S
Meriden        CLOUDY    36  23  59 S5        30.32F WCI  32
New Haven      CLOUDY    37  27  67 SW6       30.34S WCI  32
Chester          N/A     34  23  64 SW3       30.31F
Groton         CLEAR     35  23  61 W5        30.33F WCI  31
Wilimantic     CLOUDY    38  19  46 S5        30.31F WCI  34

 IN RI

CITY           SKY/WX    TMP DP  RH WIND       PRES   REMARKS
Providence     MOCLDY    37  15  40 S10       30.31F WCI  30
Block Island   NOT AVBL
Westerly       CLEAR     37  24  59 SW6       30.34S WCI  32
 IN MA

CITY           SKY/WX    TMP DP  RH WIND       PRES   REMARKS
Boston         CLOUDY    40  16  37 SW14      30.27F WCI  32
Worcester      CLOUDY    33  15  47 W15       30.23F WCI  23
Westfield      CLOUDY    38  18  44 W6        30.29S WCI  33
Provincetown   CLOUDY    37  26  64 SW18      30.28F WCI  27
Nantucket      CLEAR     38  28  67 W13       30.33F WCI  30
$$

ANZ330-335-338-340-345-350-353-355-162300-
COASTAL MARINE OBSERVATIONS


STATION/POSITION TIME  SKY/WX   TEMP    WIND        PRES    VSBY  WAVE
                                AIR SEA DIR/SP/G                  HT/PER
                 (UTC)          (F)     (DEG/KT/KT) (MB)    (MI)  (FT/S)
NY HARB ENTRANCE 2050            40 45  200/ 10/ 10 1028.4          1/ 9
20 S FIRE ISLAND 2150            39 45  220/ 10/ 12 1028.2          2/ 9
GREAT SOUTH BAY  NOT AVBL
23 SSW MONTAUK P 2050            40 48  240/ 12/ 16 1028.6          2/ 3
15 E BARNEGAT LI 2130               46                N/A           2/10
HUDSON CANYON    2050            45 53              1028.9          2/11
KINGS POINT      2148            39 39              1027.4
EXECUTION ROCKS  2145            40     200/  8/ 10   N/A
CENTRAL LI SOUND 2115            40     240/ 10/ 12   N/A           1/ 3
EASTERN LI SOUND NOT AVBL
ROBBINS REEF     2148            42     230/  9/ 11 1028.0
$$


>>>>>>>>>>>>>>>>>>>>>>>>>>>> KEY <<<<<<<<<<<<<<<<<<<<<<<<<<<
>                                                          <
>     SKY/WX - Sky Condition/Present Weather               <
>     TMP    - Temperature in Fahrenheit                   <
>     DP     - Dew Point in Fahrenheit                     <
>     RH     - Relative Humidity in Percent                <
>     WIND   - Direction (from) and Speed in MPH           <
>     PRES   - Mean Sea Level Pressure (inches of Hg)      <
>     WCI    - Wind Chill Index                            <
>     VSB    - VISIBILITY IN MILES                         <
>     HX     - HEAT INDEX                                  <
>     TC     - TEMPERATURE IN CELSIUS                      <
>     VRB    - VARIABLE WIND DIRECTION                     <
>                                                          <
>>>>>>>>>>>>>>>>>>>>>>>>>>>> KEY <<<<<<<<<<<<<<<<<<<<<<<<<<<




USA.gov is the U.S. government's official web portal to all federal, state and local government web resources and services.